Other Public Products
Issued by NWS Charleston, SC

Current Version | Previous Version | Graphics & Text | Print | Product List | Glossary On
Versions: 1 2 3 4 5 6 7 8 9 10 11 12 13 14 15 16 17 18 19 20 21 22 23 24 25 26 27 28 29 30 31 32 33 34 35 36 37 38 39 40 41 42 43 44 45 46 47 48 49 50
000
FPUS82 KCHS 220413
OPUCHS

TEST...KCHS/KSAV Gateway Observations...TEST
National Weather Service Charleston SC
1200 AM EDT SUN APR 22 2018

NOTE: "fair" indicates few or no clouds below 12,000 feet with no
significant weather and/or obstructions to visibility.

SCZ050-WAZ558-NCZ071-TXZ119-213-PAZ071-DCZ001-FLZ074-172-MI076-
NYZ176-178-MAZ016-IL014-TNZ027-NJZ106-GAZ044-MD014-220500-

...Gateway Observations for Charleston International...

CITY           SKY/WX    TMP DP  RH WIND       PRES   REMARKS
Chas Airport   FAIR      58  53  84 E7        30.32F
Seattle        MOCLDY    51  37  58 NE10      30.41R
Charlotte      FAIR      58  37  45 SE7       30.32F
Dallas DFW     CLOUDY    54  53  97 N16       30.03R
Dallas Love    CLOUDY    56  54  93 NW13G21   30.04R
Philladelphia  MOCLDY    50  31  48 CALM      30.37R
Wash National  MOCLDY    53  36  52 S3        30.39S
Baltimore      CLOUDY    47  35  63 CALM      30.37S
Miami          FAIR      77  72  84 E8        30.11S
Detroit        MOCLDY    42  22  44 CALM      30.41F
Newark         MOCLDY    54  26  34 NW10      30.35R
Laguardia      FAIR      54  21  27 N13G21    30.34R
J F K          MOCLDY    52  22  30 NW13      30.35S
Boston Logan   FAIR      48  20  32 N7        30.31R
Ft. Lauderdale FAIR      78  74  87 E15G24    30.10F
Chicago O`Hare CLOUDY    46  19  34 N7        30.38F
Chicago Midway CLOUDY    47  17  30 NE8       30.39F
Houston Bush   RAIN      70  69  97 CALM      29.93  FOG
Houston Hobby  TSTM      71  71 100 S13G18    29.87R
Nashville      MOCLDY    61  38  42 E3        30.19F
Atlanta        CLOUDY    63  41  44 SE8       30.25S

$$

GAZ044-118-TXZ119-213-NCZ071-DCZ001-MDZ014-506-PAZ021-071-NJZ106-
NYZ176-178-MAZ106-OHZ011-021-055-MIZ076-KYZ091-ILZ014-INZ047-
MNZ060-ONZ431-220500-

...Gateway Observations for Savannah International...

CITY           SKY/WX    TMP DP  RH WIND       PRES   REMARKS
Savannah Arpt  MOCLDY    62  55  77 E9        30.29F
Atlanta        CLOUDY    63  41  44 SE8       30.25S
Charlotte      FAIR      58  37  45 SE7       30.32F
Dallas DFW     CLOUDY    54  53  97 N16       30.03R
Houston Bush   RAIN      70  69  97 CALM      29.93  FOG
Wash National  MOCLDY    53  36  52 S3        30.39S
Wash Dulles    CLOUDY    47  37  68 SW3       30.37S
Baltimore      CLOUDY    47  35  63 CALM      30.37S
Philadelphia   MOCLDY    50  31  48 CALM      30.37R
Newark         MOCLDY    54  26  34 NW10      30.35R
Laguardia      FAIR      54  21  27 N13G21    30.34R
J F K          MOCLDY    52  22  30 NW13      30.35S
Boston         FAIR      48  20  32 N7        30.31R
Pittsburg      CLOUDY    50  28  42 NE7       30.35F
Akron          CLOUDY    46  26  45 NE8       30.38S
Cleveland      MOCLDY    40  33  76 CALM      30.42F
Cincinnati     CLOUDY    53  23  31 NE9       30.30F
Columbus       FAIR      47  27  46 NE7       30.33F
Detroit        MOCLDY    42  22  44 CALM      30.41F
Chicago O`Hare CLOUDY    46  19  34 N7        30.38F
Minneapolis    FAIR      51  33  50 SW5       30.36S
Indianapolis   CLOUDY    53  24  32 E10       30.32F
Toronto Canada CLEAR     43  25  49 NW7       30.40S

$$




USA.gov is the U.S. government's official web portal to all federal, state and local government web resources and services.